Regional Weather Roundup
Issued by NWS

Home | Current Version | Previous Version | Text Only | Print | Product List | Glossary On
Versions: 1 2 3 4 5 6 7 8 9 10 11 12 13 14 15 16 17 18 19 20 21 22 23 24 25 26 27 28 29 30 31 32 33 34 35 36 37 38 39 40 41 42 43 44 45 46 47 48 49 50
000
ASUS44 KLIX 221811
RWRLA
LOUISIANA WEATHER ROUNDUP
NATIONAL WEATHER SERVICE NEW ORLEANS LA
100 PM CDT FRI MAY 22 2015

NOTE: "FAIR" INDICATES FEW OR NO CLOUDS BELOW 12,000 FEET WITH NO
      SIGNIFICANT WEATHER AND/OR OBSTRUCTIONS TO VISIBILITY.
      SKY/WX - SKY CONDITION AND SIGNIFICANT WEATHER.
      TMP - AIR TEMPERATURE.    DP   - DEWPOINT TEMPERATURE.
      RH  - RELATIVE HUMIDITY.  PRES - PRESSURE.
      HX  - HEAT INDEX.         WCI  - WIND CHILL INDEX.

*  THESE STATIONS ARE NOT NWS OR FAA STATIONS AND ARE NOT UNDER
   NWS QUALITY CONTROL.

LAZ040-048-061>063-065-066-069-221900-
SOUTHEAST LOUISIANA

CITY           SKY/WX    TMP DP  RH WIND       PRES   REMARKS
N.O. AUDUBON     N/A     79  66  64 MISG        N/A
6HR MIN TEMP:  69; 6HR MAX TEMP:  79;

N.O. INTL ARPT MOSUNNY   77  64  64 NE10      30.15F
6HR MIN TEMP:  68; 6HR MAX TEMP:  77;

N.O. LAKEFRONT MOSUNNY   78  62  57 NE9       30.16F
6HR MIN TEMP:  69; 6HR MAX TEMP:  78;

SLIDELL        MOSUNNY   78  65  63 VRB3      30.15F
6HR MIN TEMP:  63; 6HR MAX TEMP:  78;

BATON ROUGE    SUNNY     78  65  63 E3        30.17S
6HR MIN TEMP:  63; 6HR MAX TEMP:  79;

BOOTHVILLE     CLOUDY    77  70  79 NE10      30.16F
6HR MIN TEMP:  73; 6HR MAX TEMP:  77;

BELLE CHASSE   MOSUNNY   77  65  66 NE8       30.15F
6HR MIN TEMP:  67; 6HR MAX TEMP:  77;

BOGALUSA*        N/A     76  59  56 CALM      30.19F
6HR MIN TEMP:  61; 6HR MAX TEMP:  76;

GALLIANO*      CLOUDY    79  68  69 CALM      30.16S
6HR MIN TEMP:  72; 6HR MAX TEMP:  79;

NEW ROADS*     MOCLDY    73  63  70 CALM      30.18S
6HR MIN TEMP:  62; 6HR MAX TEMP:  74;

GONZALES*      FAIR      77  67  69 N6        30.15S
6HR MIN TEMP:  65; 6HR MAX TEMP:  78;

HAMMOND*       SUNNY     79  61  53 NE6       30.18S
HOUMA*         MOSUNNY   79  70  73 MISG      30.15F
PORT FOURCHON* NOT AVBL

$$

LAZ041-044-053-054-221900-
SOUTHWEST LOUISIANA

CITY           SKY/WX    TMP DP  RH WIND       PRES   REMARKS
LAKE CHARLES   MOSUNNY   74  64  71 NE10      30.16S
6HR MIN TEMP:  62; 6HR MAX TEMP:  74;

LAFAYETTE      CLOUDY    74  65  73 NE7       30.17S
6HR MIN TEMP:  63; 6HR MAX TEMP:  74;

PATTERSON      CLOUDY    77  68  73 NE6       30.17R
SALT POINT       N/A     77  69  76 VRB5      30.14R
6HR MIN TEMP:  69; 6HR MAX TEMP:  78;

NEW IBERIA     CLOUDY    76  67  73 NE8       30.17S
6HR MIN TEMP:  65; 6HR MAX TEMP:  76;

CHENAULT AIRPK PTSUNNY   73  64  73 E7        30.17S

$$

LAZ027-028-221900-
CENTRAL LOUISIANA

CITY           SKY/WX    TMP DP  RH WIND       PRES   REMARKS
FORT POLK      CLOUDY    68  61  77 VRB5      30.18S
6HR MIN TEMP:  56; 6HR MAX TEMP:  67;

ALEXANDRIA INT CLOUDY    67  60  78 VRB6      30.18F
6HR MIN TEMP:  57; 6HR MAX TEMP:  68;

ALEXANDRIA     CLOUDY    73  60  63 VRB7      30.19F
6HR MIN TEMP:  59; 6HR MAX TEMP:  73;


$$

LAZ001-002-221900-
NORTHWEST LOUISIANA

CITY           SKY/WX    TMP DP  RH WIND       PRES   REMARKS
SHREVEPORT     MOSUNNY   68  55  63 SE7       30.19F
6HR MIN TEMP:  55; 6HR MAX TEMP:  69;

BARKSDALE AFB  MOSUNNY   68  55  62 E5        30.20F
6HR MIN TEMP:  53; 6HR MAX TEMP:  68;

DTN SHREVEPORT MOSUNNY   67  54  63 CALM      30.20F
6HR MIN TEMP:  54; 6HR MAX TEMP:  67;


$$

LAZ014-016-221900-
NORTHEAST LOUISIANA

CITY           SKY/WX    TMP DP  RH WIND       PRES   REMARKS
MONROE         SUNNY     70  55  59 NE9       30.23F
6HR MIN TEMP:  53; 6HR MAX TEMP:  70;

TALLULAH       MOSUNNY   73  54  51 E6        30.22F
6HR MIN TEMP:  55; 6HR MAX TEMP:  73;


$$




USA.gov is the U.S. government's official web portal to all federal, state and local government web resources and services.